星链-1611 (STARLINK-1611 )

导读

STARLINK-1611是美国SpaceX公司星链(Starlink)项目的卫星,于2020年8月18日发射。作为星链星座组网的组成部分,它旨在为全球提供高速互联网服务,尤其覆盖偏远地区与海上、航空等场景。星链项目是全球规模最大的卫星互联网星座,依托低轨卫星布局,逐步构建天地一体化通信网络,推动全球互联基础设施发展。

基本信息
目录编号:
46147
目录名称:
STARLINK-1611
国际标识:
2020-057AG
轨道中心:
EARTH
卫星名称:
星链-1611
卫星全名:
星链-1611 (STARLINK-1611 )
卫星状态:
已陨落 最后检测时间 2025-01-31
发射日期:
2020-08-18 UTC
国别 :
美国 (US)
星等 :
--
轨道信息
数据来源 国际轨道数据
星历时间: 2025-01-31T09:58:53+0800
轨道信息已过期503天
半长轴: 6508.618km
偏心率: 0.0029004
轨道倾角: 53.014°
近地点辐角 204.325°
升交点赤经 286.182°
平近点角 260.185°
近地点: 111.605km
远地点: 149.361km
周期: 87.095分钟
每日圈数: 16.533683
详细信息
固有亮度:
5
最大亮度:
2.5
卫星平台:
Starlink V1.0
覆盖范围:
全球
运营商:
太空探索技术公司
运营商所在国:
美国
制造商(研发单位):
太空探索技术公司
制造商所在国:
美国
使用方式:
暂无
卫星简介
星链(Starlink)计划是由太空探索技术公司(SpaceX)提出的一个巨型低轨卫星互联网星座项目,计划在2019年至2024年间在太空搭建由约1.2万颗卫星组成的“星链”网络,其中1584颗将部署在地球上空550千米处的近地轨道,并从2020年开始工作。该卫星仍在工作。